Voltar ao catálogo

CARTOSAT 3

AtivoCiênciaSSO
NORAD 44804·PAYLOAD·🇮🇳 India

Lançado Nov 27, 2019 de Satish Dhawan Space Centre

Loading…

Próximas Passagens (próximas 24 horas)

TLE

AtualizadoSource: Space-Track

Época: Sep 14, 2026, 14:24 UTC

1 44804U 19081A   26257.60001615  .00002422  00000-0  11815-3 0  9999
2 44804  97.4212 317.9823 0010931 195.6164 164.4735 15.19210671377040

Acompanhe CARTOSAT 3 em tempo real com AllMySat

Download on the App Store